#timestamp,LO_Frequency,Hit,StdDev 
1666836015.7,286046996.9,P
1666836035.5,286046996.5,N
1666836055.4,286046996.9,N
1666836075.2,286046997.0,N
1666836095.0,286046997.7,N
1666836095.9,286046997.7,N
1666836115.8,286046997.7,N
1666836135.6,286046995.4,Y
1666836155.4,286046999.5,P
1666836175.3,286046999.0,N
1666836195.1,286046998.4,N
1666836215.9,286046998.7,N
1666836235.7,286046999.3,N
1666836255.5,286046999.3,N
1666836275.4,286046996.6,Y
1666836295.2,286046998.3,P
1666836315.0,286046998.7,P
1666836315.9,286046998.7,P
1666836335.8,286046998.5,Y
1666836355.6,286046999.9,P
1666836375.5,286046998.9,N
1666836395.3,286046998.4,P
1666836415.1,286046998.7,N
1666836435.9,286046998.8,N
1666836455.7,286046999.2,N
1666836475.6,286046998.5,Y
1666836495.4,286046998.7,P
1666836515.2,286046998.7,P
1666836535.1,286046999.1,P
1666836536.0,286046999.1,Y
1666836555.8,286046998.2,P
1666836575.6,286046998.9,P
1666836595.5,286046998.8,P
1666836615.3,286046998.9,Y
1666836635.2,286047001.0,P
1666836655.9,286047001.1,N
1666836675.7,286047000.8,N
1666836695.6,286047000.6,N
1666836715.4,286047000.8,N
1666836735.2,286047001.1,N
1666836755.1,286046999.3,N
1666836756.0,286046999.3,N
1666836775.8,286046998.9,N
1666836795.7,286047001.1,N
1666836815.5,286046998.8,N
1666836835.4,286046996.8,Y
1666836855.2,286046996.9,P
1666836875.0,286046999.4,N
1666836876.0,286046999.4,N
1666836895.8,286046997.0,N
1666836915.6,286046999.2,N
1666836935.5,286046996.9,N
1666836955.3,286046995.2,Y
1666836975.1,286046999.0,P
1666836995.9,286046998.3,P
1666837015.7,286047001.1,P
1666837035.6,286046998.4,N
1666837055.4,286046998.4,N
1666837075.2,286046998.6,N
1666837095.1,286047000.8,N
1666837096.0,286047000.8,N
1666837115.8,286047001.1,N
1666837135.7,286046998.5,N
1666837155.6,286046998.8,N
1666837175.4,286047000.9,N
1666837195.3,286046998.4,N
1666837215.1,286046998.2,N
1666837216.0,286046998.2,N
1666837235.8,286047001.2,N
1666837255.7,286046998.8,N
1666837275.5,286046999.0,N
1666837295.4,286046998.3,N
1666837315.2,286046998.7,N
1666837335.0,286046999.1,N
1666837335.9,286046999.1,N
1666837355.8,286046997.1,N
1666837375.6,286046997.0,N
1666837395.4,286046996.6,N
1666837415.3,286046999.2,N
1666837435.1,286046999.2,N
1666837455.9,286046999.2,N
1666837475.7,286046996.5,N
1666837495.5,286046999.2,N
1666837515.4,286046997.0,N
1666837535.2,286046997.2,N
1666837555.1,286046996.6,N
1666837556.0,286046996.6,N
1666837575.8,286046996.8,N
1666837595.6,286046997.0,N
1666837615.5,286046996.9,N
1666837635.3,286046999.0,N
1666837655.1,286046997.3,N
1666837675.9,286046999.1,N
1666837695.7,286046996.6,N
1666837715.6,286046997.8,N
1666837735.4,286046997.4,N
1666837755.2,286046997.0,N
1666837775.1,286046996.9,N
1666837776.0,286046996.9,N
1666837795.8,286046997.4,N
1666837815.7,286046997.2,N
1666837835.5,286046997.3,N
1666837855.3,286046995.2,Y
1666837875.2,286046998.8,P
1666837895.0,286046998.7,N
1666837895.9,286046998.7,N
1666837915.8,286046999.3,N
1666837935.6,286046998.9,N
1666837955.4,286046999.2,N
1666837975.3,286047000.7,N
1666837995.1,286046999.0,N
1666838015.8,286046999.4,N
1666838035.7,286046996.8,Y
1666838055.5,286046998.6,P
1666838075.4,286046998.9,P
1666838095.2,286046998.7,P
1666838115.0,286047001.0,Y
1666838115.9,286047001.0,P
1666838135.8,286047002.6,N
1666838155.6,286047000.3,N
1666838175.4,286047000.1,N
1666838195.3,286047000.6,N
1666838215.1,286047000.0,N
1666838235.9,286047000.9,N
1666838255.7,286047000.6,N
1666838275.5,286047000.2,N
1666838295.4,286047000.8,N
1666838315.2,286047000.3,N
1666838335.0,286047000.1,N
1666838335.9,286047000.1,N
1666838355.8,286047000.5,N
1666838375.6,286047000.9,N
1666838395.5,286047000.6,N
1666838415.3,286047002.1,N
1666838435.1,286046999.7,N
1666838455.9,286047002.6,Y
1666838475.7,286047001.4,P
1666838495.5,286047001.4,P
1666838515.4,286047001.6,P
1666838535.2,286047004.4,Y
1666838555.1,286047000.1,P
1666838556.0,286047000.1,N
1666838575.8,286047000.3,N
1666838595.6,286047001.0,N
1666838615.5,286046998.2,Y
1666838635.3,286046996.8,P
1666838655.1,286046999.3,N
1666838675.9,286047000.7,N
1666838695.7,286047001.0,N
1666838715.6,286047001.2,N
1666838735.4,286047000.6,N
1666838755.2,286046999.9,N
1666838775.1,286046999.7,N
1666838776.0,286046999.7,N
1666838795.8,286047002.4,N
1666838815.6,286047001.6,N
1666838835.5,286047002.2,N
1666838855.3,286047001.8,N
1666838875.2,286047001.8,N
1666838895.9,286047002.1,N
1666838915.7,286047003.9,N
1666838935.6,286047003.8,N
1666838955.4,286047004.4,N
1666838975.2,286047003.2,N
1666838995.1,286047002.9,N
1666838996.0,286047002.9,N
1666839015.8,286047002.9,N
1666839035.7,286047005.8,Y
1666839055.5,286047003.9,P
1666839075.3,286047004.2,P
1666839095.2,286047002.0,N
1666839115.0,286047002.0,N
1666839115.9,286047002.0,N
1666839135.7,286047002.1,N
1666839155.6,286047001.9,N
1666839175.4,286047002.1,N
1666839195.3,286047001.6,N
1666839215.1,286047002.6,N
1666839216.0,286047002.6,Y
1666839235.8,286047000.7,P
1666839255.7,286046998.5,N
1666839275.5,286047001.1,N
1666839295.4,286047000.5,N
1666839315.2,286047001.0,N
1666839335.0,286047000.4,N
1666839335.9,286047000.4,N
1666839355.8,286047002.4,N
1666839375.6,286047002.7,N
1666839395.4,286047002.3,N
1666839415.3,286047001.8,N
1666839435.1,286047002.6,N
1666839455.9,286047002.8,N
1666839475.7,286047001.5,N
1666839495.5,286047001.5,N
1666839515.4,286047002.1,N
1666839535.2,286047002.5,N
1666839555.0,286047001.5,N
1666839555.9,286047001.5,N
1666839575.8,286047003.0,N
1666839595.6,286047003.1,N
